Hourly Weather Carmarthen

Today, 5 August, Wednesday

Time Temperature Precipitation Wind Pressure Humidity
00:00 +15°C° 0 mm 5 mps 748 mmHg 93%
01:00 +15°C° 0 mm 5 mps 748 mmHg 94%
02:00 +15°C° 0 mm 5 mps 748 mmHg 95%
03:00 +15°C° 0 mm 4 mps 748 mmHg 95%
04:00 +15°C° 0.1 mm 4 mps 748 mmHg 95%
05:00 +15°C° 0.1 mm 4 mps 748 mmHg 95%
06:00 +16°C° 0.1 mm 3 mps 748 mmHg 95%
07:00 +16°C° 0.2 mm 3 mps 748 mmHg 95%
08:00 +16°C° 0.2 mm 3 mps 749 mmHg 96%
09:00 +16°C° 0.2 mm 2 mps 749 mmHg 96%
10:00 +15°C° 1 mm 4 mps 749 mmHg 96%
11:00 +16°C° 1 mm 5 mps 749 mmHg 96%
12:00 +16°C° 1 mm 6 mps 748 mmHg 97%
13:00 +16°C° 0.4 mm 6 mps 749 mmHg 96%
14:00 +16°C° 0.4 mm 6 mps 749 mmHg 96%
15:00 +16°C° 0.4 mm 6 mps 750 mmHg 96%
16:00 +17°C° 0.2 mm 6 mps 750 mmHg 93%
17:00 +17°C° 0.2 mm 5 mps 751 mmHg 91%
18:00 +17°C° 0.2 mm 5 mps 751 mmHg 88%
19:00 +17°C° 0 mm 4 mps 752 mmHg 90%
20:00 +16°C° 0 mm 3 mps 753 mmHg 92%
21:00 +15°C° 0 mm 2 mps 754 mmHg 94%
22:00 +15°C° 0 mm 2 mps 754 mmHg 93%
23:00 +15°C° 0 mm 2 mps 755 mmHg 92%

Tomorrow, 6 August, Thursday

Time Temperature Precipitation Wind Pressure Humidity
00:00 +15°C° 0 mm 1 mps 755 mmHg 91%
01:00 +14°C° 0 mm 1 mps 755 mmHg 92%
02:00 +13°C° 0 mm 2 mps 756 mmHg 93%
03:00 +13°C° 0 mm 2 mps 756 mmHg 94%
04:00 +13°C° 0 mm 1 mps 756 mmHg 94%
05:00 +14°C° 0 mm 1 mps 756 mmHg 93%
06:00 +14°C° 0 mm 1 mps 756 mmHg 93%
07:00 +15°C° 0 mm 2 mps 757 mmHg 90%
08:00 +17°C° 0 mm 3 mps 757 mmHg 87%
09:00 +18°C° 0 mm 4 mps 757 mmHg 83%
10:00 +17°C° 0 mm 5 mps 757 mmHg 83%
11:00 +19°C° 0 mm 6 mps 757 mmHg 83%
12:00 +20°C° 0 mm 6 mps 757 mmHg 82%
13:00 +20°C° 0 mm 7 mps 757 mmHg 82%
14:00 +20°C° 0 mm 7 mps 757 mmHg 81%
15:00 +20°C° 0 mm 8 mps 757 mmHg 81%
16:00 +18°C° 0 mm 7 mps 757 mmHg 83%
17:00 +18°C° 0 mm 7 mps 757 mmHg 86%
18:00 +17°C° 0 mm 6 mps 757 mmHg 88%
19:00 +17°C° 0 mm 6 mps 757 mmHg 89%
20:00 +16°C° 0 mm 5 mps 757 mmHg 90%
21:00 +16°C° 0 mm 5 mps 757 mmHg 92%
22:00 +16°C° 0 mm 5 mps 758 mmHg 92%
23:00 +16°C° 0 mm 5 mps 758 mmHg 92%

Day after tomorrow, 7 August, Friday

Time Temperature Precipitation Wind Pressure Humidity
00:00 +16°C° 0 mm 5 mps 758 mmHg 92%
01:00 +15°C° 0 mm 5 mps 758 mmHg 93%
02:00 +15°C° 0 mm 5 mps 757 mmHg 94%
03:00 +14°C° 0 mm 4 mps 757 mmHg 95%
04:00 +14°C° 0 mm 5 mps 758 mmHg 95%
05:00 +14°C° 0 mm 5 mps 758 mmHg 96%
06:00 +14°C° 0 mm 5 mps 758 mmHg 96%
07:00 +16°C° 0 mm 5 mps 758 mmHg 93%
08:00 +17°C° 0 mm 5 mps 758 mmHg 89%
09:00 +19°C° 0 mm 6 mps 758 mmHg 86%
10:00 +20°C° 0.1 mm 6 mps 758 mmHg 85%
11:00 +20°C° 0.1 mm 7 mps 758 mmHg 85%
12:00 +20°C° 0.1 mm 7 mps 758 mmHg 85%
13:00 +20°C° 0.4 mm 7 mps 757 mmHg 87%
14:00 +20°C° 0.4 mm 7 mps 757 mmHg 88%
15:00 +20°C° 0.4 mm 7 mps 757 mmHg 89%
16:00 +20°C° 1.4 mm 6 mps 757 mmHg 91%
17:00 +19°C° 1.4 mm 6 mps 758 mmHg 92%
18:00 +17°C° 1.4 mm 5 mps 758 mmHg 93%
19:00 +15°C° 0.3 mm 6 mps 758 mmHg 93%
20:00 +14°C° 0.3 mm 6 mps 759 mmHg 92%
21:00 +12°C° 0.3 mm 7 mps 760 mmHg 92%
22:00 +11°C° 0 mm 6 mps 761 mmHg 93%
23:00 +10°C° 0 mm 5 mps 761 mmHg 93%

8 August, Saturday

Time Temperature Precipitation Wind Pressure Humidity
00:00 +9°C° 0 mm 5 mps 762 mmHg 94%
01:00 +9°C° 0 mm 5 mps 762 mmHg 94%
02:00 +8°C° 0 mm 4 mps 763 mmHg 95%
03:00 +8°C° 0 mm 4 mps 763 mmHg 95%
04:00 +8°C° 0 mm 4 mps 763 mmHg 95%
05:00 +9°C° 0 mm 3 mps 764 mmHg 96%
06:00 +9°C° 0 mm 3 mps 764 mmHg 96%
07:00 +11°C° 0 mm 3 mps 765 mmHg 91%
08:00 +14°C° 0 mm 2 mps 765 mmHg 87%
09:00 +15°C° 0 mm 1 mps 765 mmHg 82%
10:00 +16°C° 0 mm 1 mps 766 mmHg 77%
11:00 +18°C° 0 mm 1 mps 766 mmHg 71%
12:00 +19°C° 0 mm 1 mps 766 mmHg 66%
13:00 +19°C° 0 mm 1 mps 766 mmHg 66%
14:00 +18°C° 0 mm 2 mps 766 mmHg 67%
15:00 +18°C° 0 mm 2 mps 766 mmHg 67%
16:00 +18°C° 0 mm 2 mps 766 mmHg 71%
17:00 +17°C° 0 mm 2 mps 766 mmHg 75%
18:00 +16°C° 0 mm 3 mps 767 mmHg 80%
19:00 +14°C° 0 mm 3 mps 767 mmHg 81%
20:00 +12°C° 0 mm 3 mps 767 mmHg 83%
21:00 +11°C° 0 mm 3 mps 767 mmHg 85%
22:00 +11°C° 0 mm 3 mps 767 mmHg 84%
23:00 +10°C° 0 mm 3 mps 767 mmHg 83%

9 August, Sunday

Time Temperature Precipitation Wind Pressure Humidity
00:00 +10°C° 0 mm 3 mps 767 mmHg 82%
01:00 +10°C° 0 mm 3 mps 766 mmHg 84%
02:00 +10°C° 0 mm 2 mps 766 mmHg 85%
03:00 +10°C° 0 mm 2 mps 766 mmHg 87%
04:00 +10°C° 0 mm 2 mps 766 mmHg 88%
05:00 +10°C° 0 mm 2 mps 766 mmHg 88%
06:00 +12°C° 0 mm 2 mps 766 mmHg 89%
07:00 +13°C° 0 mm 2 mps 766 mmHg 84%
08:00 +15°C° 0 mm 2 mps 766 mmHg 80%
09:00 +16°C° 0 mm 2 mps 766 mmHg 76%
10:00 +17°C° 0 mm 2 mps 765 mmHg 73%
11:00 +18°C° 0 mm 2 mps 765 mmHg 70%
12:00 +18°C° 0 mm 2 mps 765 mmHg 67%
13:00 +18°C° 0 mm 3 mps 765 mmHg 68%
14:00 +18°C° 0 mm 3 mps 764 mmHg 69%
15:00 +18°C° 0 mm 3 mps 764 mmHg 69%
16:00 +18°C° 0 mm 2 mps 764 mmHg 72%
17:00 +18°C° 0 mm 2 mps 764 mmHg 75%
18:00 +17°C° 0 mm 2 mps 764 mmHg 78%
19:00 +16°C° 0 mm 2 mps 764 mmHg 82%
20:00 +13°C° 0 mm 3 mps 764 mmHg 86%
21:00 +12°C° 0 mm 3 mps 764 mmHg 90%
22:00 +12°C° 0 mm 3 mps 764 mmHg 90%
23:00 +12°C° 0 mm 3 mps 764 mmHg 89%

10 August, Monday

Time Temperature Precipitation Wind Pressure Humidity
00:00 +13°C° 0 mm 3 mps 763 mmHg 89%
01:00 +13°C° 0 mm 4 mps 763 mmHg 89%
02:00 +13°C° 0 mm 4 mps 763 mmHg 89%
03:00 +13°C° 0 mm 4 mps 762 mmHg 90%
04:00 +13°C° 0.5 mm 4 mps 762 mmHg 92%
05:00 +13°C° 0.5 mm 4 mps 762 mmHg 94%
06:00 +13°C° 0.5 mm 4 mps 762 mmHg 96%
07:00 +13°C° 0.6 mm 4 mps 762 mmHg 96%
08:00 +13°C° 0.6 mm 4 mps 762 mmHg 95%
09:00 +13°C° 0.6 mm 4 mps 762 mmHg 95%
10:00 +13°C° 0.3 mm 4 mps 762 mmHg 94%
11:00 +13°C° 0.3 mm 4 mps 762 mmHg 94%
12:00 +13°C° 0.3 mm 4 mps 762 mmHg 93%
13:00 +13°C° 0.1 mm 3 mps 762 mmHg 93%
14:00 +13°C° 0.1 mm 3 mps 761 mmHg 92%
15:00 +13°C° 0.1 mm 3 mps 761 mmHg 92%
16:00 +14°C° 0.2 mm 2 mps 761 mmHg 93%
17:00 +14°C° 0.2 mm 2 mps 761 mmHg 94%
18:00 +14°C° 0.2 mm 2 mps 761 mmHg 94%
19:00 +14°C° 0.1 mm 2 mps 761 mmHg 95%
20:00 +14°C° 0.1 mm 2 mps 761 mmHg 96%
21:00 +14°C° 0.1 mm 2 mps 761 mmHg 97%
22:00 +14°C° 0.1 mm 2 mps 761 mmHg 97%
23:00 +14°C° 0.1 mm 2 mps 760 mmHg 97%
Show more